Change the Weather History Date:

Sunday, May 13, 2012

  Actual Average Record
Temperature  
Mean Temperature 62 °F 57 °F  
Max Temperature 74 °F 68 °F 88 °F (1936)
Min Temperature 50 °F 46 °F 29 °F (2013)
Degree Days  
Heating Degree Days 3 9  
Month to date heating degree days 59 132  
Since 1 July heating degree days 5004 6159  
Cooling Degree Days 0 1  
Month to date cooling degree days 23 6  
Year to date cooling degree days 35 15  
Growing Degree Days 12 (Base 50)    
Moisture  
Dew Point 47 °F    
Average Humidity 58    
Maximum Humidity 83    
Minimum Humidity 33    
Precipitation  
Precipitation 0.00 in 0.12 in 1.53 in (1964)
Month to date precipitation 2.99 1.50  
Year to date precipitation 14.68 12.50  
Snow  
Snow 0.00 in 0.00 in - ()
Month to date snowfall 0.0 0.0  
Since 1 July snowfall 56.5 62.7  
Snow Depth 0.00 in    
Sea Level Pressure  
Sea Level Pressure 30.17 in    
Wind  
Wind Speed 3 mph (South)    
Max Wind Speed 13 mph    
Max Gust Speed 17 mph    
Visibility 10 miles    
Events      
T = Trace of Precipitation, MM = Missing Value Source: NWS Daily Summary

Daily Weather History Graph

Daily Weather History Graph

Search for Another Location

Airport or City:

Trip Planner

Search our weather history database for the weather conditions in past years. The results will help you decide how hot, cold, wet, or windy it might be!

Date:

Astronomy

May. 13, 2012 Rise Set
Actual Time 6:05 AM EDT 8:32 PM EDT
Civil Twilight 5:34 AM EDT 9:04 PM EDT
Nautical Twilight 4:55 AM EDT 9:43 PM EDT
Astronomical Twilight 4:12 AM EDT 10:26 PM EDT
Moon 2:14 AM EDT (5/13) 1:48 PM EDT (5/13)
Length of Visible Light 15h 29m
Length of Day
14h 27m
Last Quarter, 42% of the Moon is Illuminated
May 13
Last Quarter
May 20
New
May 28
First Quarter
Jun 4
Full
Jun 11
Last Quarter

Hourly Weather History & Observations

Time (EDT) Temp. Dew Point Humidity Pressure Visibility Wind Dir Wind Speed Gust Speed Precip Events Conditions
12:51 AM 55.9 °F 46.9 °F 72% 30.19 in 10.0 mi Calm Calm - N/A   Overcast
1:51 AM 55.9 °F 46.0 °F 69% 30.19 in 10.0 mi Calm Calm - N/A   Overcast
2:51 AM 53.1 °F 46.0 °F 77% 30.18 in 10.0 mi Calm Calm - N/A   Mostly Cloudy
3:51 AM 55.9 °F 44.1 °F 64% 30.18 in 10.0 mi Calm Calm - N/A   Scattered Clouds
4:51 AM 55.0 °F 44.1 °F 67% 30.18 in 10.0 mi Calm Calm - N/A   Overcast
5:51 AM 51.1 °F 46.0 °F 83% 30.19 in 10.0 mi Calm Calm - N/A   Overcast
6:51 AM 54.0 °F 44.1 °F 69% 30.19 in 10.0 mi Calm Calm - N/A   Mostly Cloudy
7:51 AM 57.9 °F 48.9 °F 72% 30.20 in 10.0 mi Calm Calm - N/A   Overcast
8:51 AM 60.1 °F 46.9 °F 62% 30.21 in 10.0 mi Calm Calm - N/A   Mostly Cloudy
9:51 AM 63.0 °F 48.0 °F 58% 30.20 in 10.0 mi Calm Calm - N/A   Mostly Cloudy
10:51 AM 68.0 °F 46.0 °F 45% 30.19 in 10.0 mi SSW 5.8 mph - N/A   Mostly Cloudy
11:51 AM 72.0 °F 43.0 °F 35% 30.18 in 10.0 mi South 4.6 mph - N/A   Mostly Cloudy
12:51 PM 73.0 °F 43.0 °F 34% 30.17 in 10.0 mi WNW 3.5 mph - N/A   Mostly Cloudy
1:51 PM 72.0 °F 45.0 °F 38% 30.15 in 10.0 mi SSW 5.8 mph - N/A   Overcast
2:51 PM 68.0 °F 48.0 °F 49% 30.15 in 10.0 mi South 10.4 mph - N/A   Overcast
3:51 PM 66.9 °F 48.0 °F 51% 30.14 in 10.0 mi South 6.9 mph - N/A   Overcast
4:51 PM 64.9 °F 48.0 °F 54% 30.13 in 10.0 mi SSW 8.1 mph - N/A   Overcast
5:51 PM 64.0 °F 48.9 °F 58% 30.14 in 10.0 mi SSW 6.9 mph - N/A   Overcast
6:51 PM 63.0 °F 48.9 °F 60% 30.14 in 10.0 mi South 4.6 mph - N/A   Overcast
7:51 PM 61.0 °F 50.0 °F 67% 30.13 in 10.0 mi South 3.5 mph - N/A   Overcast
8:51 PM 60.1 °F 50.0 °F 69% 30.14 in 10.0 mi Calm Calm - N/A   Overcast
9:51 PM 59.0 °F 51.1 °F 75% 30.14 in 10.0 mi SSE 3.5 mph - N/A   Overcast
10:51 PM 57.9 °F 52.0 °F 81% 30.14 in 10.0 mi Calm Calm - N/A   Overcast
11:51 PM 57.9 °F 52.0 °F 81% 30.12 in 10.0 mi East 4.6 mph - N/A   Overcast